Location: Cardiff
(53.7833°N, 113.6000°W)
Time: 20:27:53
(UTC+00:00)

Oscar 19 - Pass Details

Date: 12 December 2023
Orbit: 771 x 789 km, 98.9° (Epoch: 04 March)

Event Time Altitude Azimuth Distance (km) Brightness Sun altitude
Rises 11:31:08 0° 22° (NNE) 3,280 14.2 -35.6°
Reaches altitude 10° 11:33:46 10° 34° (NE) 2,350 13.5 -35.2°
Maximum altitude 11:38:13 28° 94° (E) 1,435 12.5 -34.5°
Drops below altitude 10° 11:42:39 10° 153° (SSE) 2,345 13.3 -33.9°
Sets 11:45:17 0° 164° (SSE) 3,271 14.0 -33.5°
